Tracking 30692 objects as of 16-Jun-2025
HD Live streaming from Space Station
objects crossing your sky now

BSAT-2C

Track BSAT-2C now!
BSAT-2C is classified as:


NORAD ID: 27830
Int'l Code: 2003-028A
Perigee: 36,075.4 km
Apogee: 36,118.7 km
Inclination: 9.4 °
Period: 1,451.6 minutes
Semi major axis: 42468 km
RCS: 12.6191 m2 (large)
Launch date: June 11, 2003
Source: Japan (JPN)
Launch site: FRENCH GUIANA (FRGUI)

Backup to BSAT-2A; direct digital broadcasts to homes in Japan and neighboring countries through its Ku-band transponders.
Your satellite tracking list
Your tracking list is empty




NASA's NSSDC Master Catalog

Two Line Element Set (TLE):
1 27830U 03028A   25167.12128142 -.00000100  00000-0  00000+0 0  9996
2 27830   9.3610  55.4998 0005099 272.7393 261.7920  0.99199455 80193
Source of the keplerian elements: AFSPC